STARLINK-34887, 65103

Orbit data source: Space-Track

STARLINK-34887, 65103 is a payload satellite owned by SpaceX/Seattle (US) in LEO that was launched on Mon, 04 Aug 2025 UTC via an FALCON 9 launch vehicle from the Air Force Eastern Test Range (AFETR). Payload-class satellites include a variety of spacecraft equipped with specific instruments for various scientific and technological missions. These include communications satellites like Starlink; space stations such as the ISS; scientific satellites like the Hubble; Earth observation satellites from companies like Planet Labs, Umbra, and HawkEye 360; GPS; miniature CubeSats for education and research; and military/defense satellites.

Loading next visibility...
Identifier
65103, 2025-167AB
Orbit
LEO
Country
Flag of USUS
Related business
Manufacturer
SpaceX/Seattle
Mission
Operational Commercial Communications
Bus & Motor
STARLINK V2MO, Unknown motor
Mass
575 kg wet, ~530 kg dry
Launch date (UTC)
2025-08-04 (11 months ago)
Launch vehicle
FALCON 9
Launch site
Air Force Eastern Test Range (AFETR)
Object type
Payload
Rocket body
Debris
Shape & HBR
Box + 2 Pan, 17.7 m
Radar Cross Section
36.964 m², Large (>1 m²)

Expand to show TLE details & history
Last TLE update: 7 hours ago

TLE from 7 hours ago
0 STARLINK-34887
1 65103U 25167AB  26174.93209048  .00017382  00000-0  52445-3 0  9995
2 65103  53.1591 251.9231 0001287  74.2039 285.9105 15.34396845 49761
Epoch: 2026-06-23T22:22Z
TLE epoch observation values (Epoch: 2026-06-23T22:22:12.617Z)
Latitude
-0.00005°
Longitude
4.27392°
Altitude
463.373 km
Speed
7.636 km/s
True Right ascension
16h 47m 41s
True Declination
0° 00' 00"
Sunlit
Object was in full shadow at epoch
Visualization orbit readout
Latitude
Unknown
Longitude
Unknown
Altitude
Unknown
Speed
Unknown
Apparent Right ascension
Unknown
Apparent Declination
Unknown
Sunlit
N/A
Visualization observer readout
Local Sidereal Time
16:41:06
Azimuth
Unknown
Elevation
Unknown
Doppler factor
Unknown
Orbital elements
Apogee altitude
463.85 km
Perigee altitude
462.089 km
Semi-major axis
6,841.107 km
Eccentricity
0.00013
Inclination
53.1591°
RAAN
251.9231°
Arg. of periapsis
74.2039°
True anomaly
285.89632°
Mean anomaly
285.9105°
Eccentric anomaly
285.90341°
Mean motion
3.83578 °/min
Orbital period
93.85 mins
BSTAR
0.00052445
Loading maneuver chart data...
Computing Atmospheric mass density...
Loading historical data...
Loading historical data...
Loading historical data...
Loading historical data...
Loading historical data...
Loading historical data...
Loading historical data...

Documentation

Showing up to 5 results
|